Regional Weather Roundup
Issued by NWS Wakefield, VA

Home | Current Version | Previous Version | Graphics & Text | Print | Product List | Glossary On
Versions: 1 2 3 4 5 6 7 8 9 10 11 12 13 14 15 16 17 18 19 20 21 22 23 24 25 26 27 28 29 30 31 32 33 34 35 36 37 38 39 40 41 42 43 44 45 46 47 48 49 50
000
ASUS41 KAKQ 290129
RWRAKQ

REGIONAL WEATHER ROUNDUP
NATIONAL WEATHER SERVICE WAKEFIELD VA
900 PM EDT SAT MAR 28 2015

Note: "fair" indicates few or no clouds below 12,000 feet with no
significant weather and/or obstructions to visibility. * = Denotes
station may not report precipitation (e.g., rain,snow,etc.),
thunder or fog.

VAZ042-051-052>054-056-290200-
NORTHERN VIRGINIA

CITY           SKY/WX    TMP DP  RH WIND       PRES   REMARKS
WASH NATIONAL  PTCLDY    33   9  36 NW15G26   30.21R WCI  23
DULLES         PTCLDY    29   6  38 NW14      30.20R WCI  18
FORT BELVOIR   PTCLDY    32   6  33 NW18G24   30.21R WCI  20
QUANTICO       PTCLDY    33   6  32 N15G25    30.23R WCI  23
FREDERICKSBRG* PTCLDY    33   9  37 NW13G18   30.21R WCI  23
STAFFORD*      CLEAR     29   7  39 NW8       30.25R
WARRENTON      PTCLDY    31  15  51 NW7       30.20R
CULPEPER*      PTCLDY    32   7  34 NW7       30.21R
MANASSAS*      NOT AVBL
LEESBURG*      CLEAR     30  10  43 NW13G20   30.21R WCI  20
WINCHESTER     CLEAR     30   1  29 NW12      30.18R WCI  21
FRONT ROYAL*   FAIR      30   9  40 NW6       30.18R
LURAY*         FAIR      32  10  40 W6        30.18R
$$

VAZ048-049-060>072-079>083-290200-
CENTRAL AND SOUTH CENTRAL VIRGINIA

CITY           SKY/WX    TMP DP  RH WIND       PRES   REMARKS
RICHMOND       CLEAR     32   7  35 N14       30.21R WCI  22
CHESTERFIELD*  FAIR      34   3  27 N7        30.22R
PETERSBURG*    CLEAR     35   6  30 N9        30.21R
HANOVER        CLEAR     30   6  36 N3        30.23R
TAPPAHANNOCK*  CLEAR     32   2  28 W5        30.21R
QUINTON*       FAIR      30   7  37 NW5       30.21R
CHARLOTTSVILLE CLEAR     30   7  37 NW7       30.20R
GORDONSVILLE*  FAIR      31   8  37 CALM      30.20R
ORANGE*        CLEAR     32  10  40 W3        30.22R
LOUISA*        CLEAR     28   9  43 CALM      30.19R
BUMPASS*       FAIR      30   9  40 CALM      30.20R
FARMVILLE*     CLEAR     33   8  34 N3        30.20R
CREWE*         FAIR      31   7  36 MISG      30.20R
FORT PICKETT*  FAIR      32   9  38 N7        30.20R
CHASE CITY*    FAIR      36  12  37 NW5       30.20R
CLARKSVILLE*   FAIR      34  10  37 NW6       30.18R
SOUTH HILL*    CLEAR     33  14  46 N13       30.25R WCI  23
LAWRENCEVILLE* FAIR      34  15  46 N6        30.19R
EMPORIA*       CLEAR     34  14  44 N9        30.21R
$$

VAZ088>098-290200-
SOUTHEAST VIRGINIA

CITY           SKY/WX    TMP DP  RH WIND       PRES   REMARKS
NORFOLK        CLEAR     36  11  35 N14G22    30.17R
VIRGINIA BEACH PTCLDY    37  14  38 N17       30.17R
NORFOLK NAVAL  PTCLDY    38  11  32 N18       30.20R
WEST POINT*    CLEAR     34   4  29 NW5       30.22R
SALUDA*        FAIR      32  10  40 NW10G22   30.19R WCI  24
NEWPORT NEWS   CLEAR     36   9  32 N9G20     30.19
LANGLEY AFB    CLEAR     33   8  35 N13G18    30.18R WCI  24
FORT EUSTIS    CLEAR     34  12  40 NE17G23   30.18R WCI  24
WILLIAMSBURG*  CLEAR     34  16  47 N7        30.21R
HR EXEC AP*    FAIR      36  16  44 N6        30.19R
FRANKLIN*      CLOUDY    35  15  44 N8        30.20R
WAKEFIELD      CLEAR     34  10  37 VRB7      30.20R
$$

VAZ020-022-025-037-045-290200-
WEST CENTRAL AND SOUTHWEST VIRGINIA

CITY           SKY/WX    TMP DP  RH WIND       PRES   REMARKS
STAUNTON*      CLEAR     27   8  43 NW10      30.20R WCI  18
WAYNESBORO*    FAIR      26   7  44 NW9G18    30.17R
HOT SPRINGS VA CLEAR     16   6  66 NW12G20   30.02R WCI   3
LYNCHBURG      CLEAR     30   7  37 VRB5      30.21R
DANVILLE       CLEAR     36  10  34 N7        30.21R
SOUTH BOSTON*  FAIR      34   7  32 NW6       30.21R
MARTINSVILLE   CLEAR     32   9  38 NW5       30.23R
ROANOKE        CLEAR     31   5  33 NW9       30.22R
BLACKSBURG     CLEAR     26   5  39 NW15G22   30.19R WCI  14
DUBLIN*        CLEAR     29   8  40 NW6       30.18R
MARION*        CLEAR     30   4  33 NW6       30.18R
HILLSVILLE*    CLEAR     28   7  41 NW13G20   30.12R WCI  17
RICHLANDS*     FAIR      27   4  36 NW6       30.17R
WISE*          CLEAR     30   7  37 NW6       30.19R
ABINGDON*      CLEAR     33   5  30 N3        30.19R
$$

MDZ021>025-VAZ099-100-290200-
SOUTHERN MARYLAND AND THE DELMARVA PENINSULA

CITY           SKY/WX    TMP DP  RH WIND       PRES   REMARKS
PATUXENT RIVER CLOUDY    33  10  38 NW22G29   30.18R WCI  21
BAY BRIDGE APT   N/A     32  10  40 NW16G22   30.18R WCI  21
LEONARDTOWN    CLOUDY    32   9  37 NW9       30.21R
DOVER          PTCLDY    30  19  62 W14       30.13R WCI  20
GEORGETOWN     CLOUDY    31  17  56 NW9G21    30.14R
EASTON         NOT AVBL
CAMBRIDGE      MOCLDY    34  12  40 NW15G21   30.18R WCI  24
SALISBURY      CLEAR     30  19  63 NW6       30.15R
OCEAN CITY     CLEAR     30  19  63 NW10G20   30.14R WCI  21
WALLOPS ISLAND PTCLDY    32  14  47 N9        30.16R
ACCOMACK*      CLEAR     32  10  40 NW14G22   30.16R WCI  22
$$

NCZ012>017-030>032-290200-
NORTH CENTRAL AND EASTERN NORTH CAROLINA

CITY           SKY/WX    TMP DP  RH WIND       PRES   REMARKS
ROANOKE RAPIDS FAIR      36  16  44 NW3       30.19R
RALEIGH        CLEAR     38  12  34 VRB5      30.19R
ELIZABETH CITY PTCLDY    35  21  56 W3        30.16R
AHOSKIE*       CLEAR     32  23  68 CALM      30.19R
EDENTON*       CLEAR     36  25  62 N3        30.17R
CURRITUCK*     CLEAR     37  19  49 CALM      30.16R
KILL DEVIL HLS CLEAR     38  19  45 NW9G16    30.14R
MANTEO         CLEAR     39  20  47 NW12G18   30.16R
CAPE HATTERAS  CLEAR     39  25  57 VRB5      30.16R
TARBORO*       FAIR      39  16  39 NW6       30.20R
GOLDSBORO      CLEAR     41  22  48 NW1       30.16R
WASHINGTON       N/A     38  20  50 CALM      30.18R
GREENVILLE     CLEAR     36  21  55 N5        30.19R
NEW BERN       CLEAR     40  21  46 NW7       30.18R
WILMINGTON     CLEAR     44  26  49 N9        30.16R
$$

VAZ048-290200-
ELSEWHERE

CITY           SKY/WX    TMP DP  RH WIND       PRES   REMARKS
HARRISBURG PA  MOCLDY    31   4  31 NW13G23   30.13R WCI  21
BALTIMORE      PTCLDY    29   9  43 W13G20    30.16R WCI  19
ANNAPOLIS      CLEAR     31  10  41 NW12G20   30.17R WCI  22
ANDREWS AFB    PTCLDY    30  10  42 NW16G24   30.17R WCI  18
PHILADELPHIA   PTCLDY    32  13  45 NW12G18   30.12R WCI  23
HENDERSON NC   CLEAR     35   4  27 NW5       30.19R
GREENSBORO     CLEAR     36  10  34 N9        30.18R
ROCKY MOUNT    CLEAR     39  14  36 N8        30.19R
$$

VAZ100-290200-
MARINE

STATION/POSITION TIME  TEMP    WIND        PRES    WAVE   SWELL
                       AIR SEA DIR/SP/G            HT/PER HT/PER
                 (UTC) (F)     (DEG/KT/KT) (MB)    (FT/S) (FT/S)
BRANDYWINE LGT   0000          320/ 22/ 28 1018.2R
CAPE MAY NJ      0000   35 44  310/ 24/ 30 1017.6R
LEWES DE         0000   32 43  280/ 14/ 18 1018.7R
15NM E FENWICK I 0050   33 40              1018.7R   5/ 5
OCEAN-CITY-INLET 0000          320/ 12/ 16 1019.1R
WACHAPREAGUE VA  0000   33 47  330/  4/ 10 1020.1R
THOMAS POINT MD  0100                        N/A
COVE POINT MD    0000   32     320/ 13/ 17 1020.4R
SOLOMONS ISLAND  0000      43                N/A
BISHOPS HEAD MD  0000          310/ 17/ 20 1020.1
PINEY POINT MD   0006          340/ 25/ 29   N/A
CAMBRIDGE MD     0000   34 44  300/ 16/ 22 1020.1R
LEWISETTA VA     0000   35 46              1021.2R
RAPPAHANNOCK LGT 0000          320/ 24/ 27 1020.8R
STINGRAY PT      0100   34 45  330/ 16/ 19   N/A     2/ 3
YORK RVR RNG VA  0000   36     350/ 23/ 29 1019.7R
YORKTOWN VA      0000   36 47  340/ 18/ 25 1020.7R
DOMINION TERM VA 0000   40      30/  3/  7 1020.1R
KIPTOPEKE VA     0000      49  340/ 23/ 26   N/A
CHES BAY BRIDGE  0000          340/ 22/ 25 1019.8R
CAPE HENRY VA    0000   37     340/ 21/ 24 1018.7R
CHESAPEAKE LGHT  0100   36     340/ 26/ 27 1021.7R
WILLOUBY STN VA  0000   39     350/ 14/ 17 1020.7R
S CRANEY ISL VA  0000          360/ 13/ 16 1020.0R
CAPE HENRY BUOY  0028      40                N/A     4/ 4
1ST LANDING BUOY 0100   36     340/ 23/ 27 1021.3R   3/ 3
OFFSHORE WE BUOY 0011      40                N/A     5/ 9   3/ 9
64NM E OF VA BCH 0050   39 57  330/ 19/ 25 1019.7R   6/ 6   3/ 9
DUCK PIER NC     0000   39 42  320/ 11/ 13 1019.3R
44056 DUCK FRF   0011      41                N/A     4/ 9   2/11
OREGON INLET NC  0000   40 46  310/ 12/ 18 1019.8R
HATTERAS NC      0000   42 54  340/ 15/ 20 1020.2R
CAPE LOOKOUT NC  0100   45     350/ 17/ 20 1020.8R
$$


USA.gov is the U.S. government's official web portal to all federal, state and local government web resources and services.